| time (UTC) | temp F | wind direction | speed MPH | gust MPH | rain 1hr in | rain 24hr in | rain mn in | humidity % | barometer mb |
| 20260509043324 | 51 | 255 | 0.0 | 0.0 | 0.00 | 0.00 | 0.00 | 88 | 1019.5 |
| 20260509042324 | 51 | 255 | 0.0 | 0.0 | 0.00 | 0.00 | 0.00 | 87 | 1019.4 |
| 20260509041824 | 51 | 255 | 0.0 | 0.0 | 0.00 | 0.00 | 0.00 | 88 | 1019.4 |
| 20260509041326 | 51 | 255 | 0.0 | 0.0 | 0.00 | 0.00 | 0.00 | 87 | 1019.4 |
| 20260509040824 | 51 | 255 | 0.0 | 0.0 | 0.00 | 0.00 | 0.00 | 87 | 1019.4 |
| 20260509040325 | 51 | 255 | 0.0 | 0.0 | 0.00 | 0.00 | 0.00 | 88 | 1019.4 |
| 20260509035824 | 51 | 292 | 0.0 | 0.0 | 0.00 | 0.00 | 0.00 | 88 | 1019.4 |
| 20260509035325 | 51 | 280 | 0.0 | 0.0 | 0.00 | 0.00 | 0.00 | 89 | 1019.4 |
| 20260509034824 | 51 | 242 | 0.0 | 0.0 | 0.00 | 0.00 | 0.00 | 89 | 1019.4 |
| 20260509034324 | 51 | 228 | 0.0 | 0.0 | 0.00 | 0.00 | 0.00 | 89 | 1019.4 |
| 20260509033825 | 51 | 228 | 0.0 | 0.0 | 0.00 | 0.00 | 0.00 | 88 | 1019.4 |
| 20260509033325 | 51 | 227 | 0.0 | 0.0 | 0.00 | 0.00 | 0.00 | 88 | 1019.4 |
| 20260509032824 | 51 | 227 | 0.0 | 0.0 | 0.00 | 0.00 | 0.00 | 89 | 1019.3 |
| 20260509032325 | 51 | 227 | 0.0 | 0.0 | 0.00 | 0.00 | 0.00 | 88 | 1019.3 |
| 20260509031824 | 51 | 227 | 0.0 | 0.0 | 0.00 | 0.00 | 0.00 | 88 | 1019.3 |
| 20260509031325 | 51 | 227 | 0.0 | 0.0 | 0.00 | 0.00 | 0.00 | 88 | 1019.3 |
| 20260509030325 | 51 | 227 | 0.0 | 0.0 | 0.00 | 0.00 | 0.00 | 88 | 1019.3 |
| 20260509025824 | 51 | 227 | 0.0 | 0.0 | 0.00 | 0.00 | 0.00 | 88 | 1019.1 |
| 20260509025324 | 51 | 227 | 0.0 | 0.0 | 0.00 | 0.00 | 0.00 | 89 | 1019.1 |
| 20260509024824 | 51 | 227 | 0.0 | 0.0 | 0.00 | 0.00 | 0.00 | 88 | 1019.1 |
| 20260509024325 | 51 | 227 | 0.0 | 0.0 | 0.00 | 0.00 | 0.00 | 88 | 1019.2 |
| 20260509023824 | 51 | 227 | 0.0 | 0.0 | 0.00 | 0.00 | 0.00 | 87 | 1019.2 |
| 20260509023324 | 51 | 227 | 0.0 | 0.0 | 0.00 | 0.00 | 0.00 | 87 | 1019.2 |
| 20260509022826 | 51 | 227 | 0.0 | 0.0 | 0.00 | 0.00 | 0.00 | 87 | 1019.2 |
| 20260509021824 | 51 | 227 | 0.0 | 0.0 | 0.00 | 0.00 | 0.00 | 86 | 1019.2 |
| 20260509021325 | 52 | 226 | 0.0 | 0.0 | 0.00 | 0.00 | 0.00 | 85 | 1019.1 |
| 20260509020325 | 52 | 226 | 0.0 | 0.0 | 0.00 | 0.00 | 0.00 | 85 | 1019.1 |
| 20260509015825 | 52 | 227 | 0.0 | 0.0 | 0.00 | 0.00 | 0.00 | 85 | 1019.0 |
| 20260509014324 | 52 | 227 | 0.0 | 0.0 | 0.00 | 0.00 | 0.00 | 85 | 1018.9 |
| 20260509013825 | 52 | 226 | 0.0 | 0.0 | 0.00 | 0.00 | 0.00 | 85 | 1018.9 |
| 20260509013325 | 52 | 227 | 0.0 | 0.0 | 0.00 | 0.00 | 0.00 | 85 | 1018.9 |
| 20260509012825 | 52 | 227 | 0.0 | 0.0 | 0.00 | 0.00 | 0.00 | 85 | 1019.0 |
| 20260509012325 | 53 | 227 | 0.0 | 0.0 | 0.00 | 0.00 | 0.00 | 84 | 1019.0 |
| 20260509011824 | 53 | 228 | 0.0 | 0.0 | 0.00 | 0.00 | 0.00 | 84 | 1019.0 |
| 20260509011325 | 53 | 228 | 0.0 | 0.0 | 0.00 | 0.00 | 0.00 | 84 | 1018.8 |
| 20260509010825 | 53 | 228 | 0.0 | 0.0 | 0.00 | 0.00 | 0.00 | 85 | 1018.8 |
| 20260509010325 | 53 | 228 | 0.0 | 0.0 | 0.00 | 0.00 | 0.00 | 84 | 1018.8 |
| 20260509005824 | 53 | 228 | 0.0 | 0.0 | 0.00 | 0.00 | 0.00 | 84 | 1018.8 |
| 20260509005325 | 53 | 227 | 0.0 | 0.0 | 0.00 | 0.00 | 0.00 | 83 | 1018.8 |
| 20260509004824 | 53 | 230 | 0.0 | 0.0 | 0.00 | 0.00 | 0.00 | 83 | 1018.8 |
| 20260509004324 | 53 | 228 | 0.0 | 1.0 | 0.00 | 0.00 | 0.00 | 82 | 1018.8 |
| 20260509003825 | 54 | 228 | 0.0 | 0.0 | 0.00 | 0.00 | 0.00 | 82 | 1018.8 |
| 20260509001825 | 54 | 227 | 0.0 | 6.0 | 0.00 | 0.00 | 0.00 | 80 | 1018.8 |
| 20260509001325 | 55 | 320 | 0.0 | 0.0 | 0.00 | 0.00 | 0.00 | 80 | 1018.8 |
| 20260509000824 | 55 | 321 | 0.0 | 0.0 | 0.00 | 0.00 | 0.00 | 80 | 1018.8 |
| 20260509000325 | 55 | 5 | 0.0 | 0.0 | 0.00 | 0.00 | 0.00 | 79 | 1018.8 |
| 20260508235826 | 55 | 5 | 0.0 | 0.0 | 0.00 | 0.00 | 0.00 | 79 | 1018.7 |
| 20260508235325 | 55 | 5 | 2.0 | 2.0 | 0.00 | 0.00 | 0.00 | 79 | 1018.7 |
| 20260508234824 | 55 | 320 | 2.0 | 3.0 | 0.00 | 0.00 | 0.00 | 80 | 1018.7 |
| 20260508234325 | 55 | 321 | 0.0 | 6.0 | 0.00 | 0.00 | 0.00 | 81 | 1018.7 |
| 20260508233825 | 55 | 312 | 0.0 | 5.0 | 0.00 | 0.00 | 0.00 | 81 | 1018.7 |
| 20260508233325 | 54 | 296 | 0.0 | 5.0 | 0.00 | 0.00 | 0.00 | 82 | 1018.7 |
| 20260508232326 | 54 | 227 | 0.0 | 0.0 | 0.00 | 0.00 | 0.00 | 81 | 1018.7 |
| 20260508231825 | 55 | 229 | 0.0 | 0.0 | 0.00 | 0.00 | 0.00 | 81 | 1018.7 |
| 20260508231324 | 55 | 226 | 0.0 | 0.0 | 0.00 | 0.00 | 0.00 | 81 | 1018.7 |
| 20260508230326 | 55 | 222 | 0.0 | 0.0 | 0.00 | 0.00 | 0.00 | 80 | 1018.7 |
| 20260508225824 | 55 | 222 | 0.0 | 0.0 | 0.00 | 0.00 | 0.00 | 80 | 1018.6 |
| 20260508225326 | 55 | 222 | 0.0 | 0.0 | 0.00 | 0.00 | 0.00 | 80 | 1018.6 |
| 20260508224825 | 55 | 222 | 0.0 | 0.0 | 0.00 | 0.00 | 0.00 | 80 | 1018.6 |
| 20260508224327 | 55 | 223 | 0.0 | 0.0 | 0.00 | 0.00 | 0.00 | 79 | 1018.6 |
| 20260508223824 | 55 | 215 | 0.0 | 0.0 | 0.00 | 0.00 | 0.00 | 80 | 1018.6 |
| 20260508223325 | 55 | 215 | 0.0 | 0.0 | 0.00 | 0.00 | 0.00 | 79 | 1018.6 |
| 20260508222827 | 56 | 215 | 0.0 | 0.0 | 0.00 | 0.00 | 0.00 | 79 | 1018.7 |
| 20260508222326 | 56 | 215 | 0.0 | 0.0 | 0.00 | 0.00 | 0.00 | 79 | 1018.7 |
| 20260508221826 | 56 | 215 | 0.0 | 0.0 | 0.00 | 0.00 | 0.00 | 79 | 1018.7 |
| 20260508221326 | 56 | 216 | 0.0 | 0.0 | 0.00 | 0.00 | 0.00 | 79 | 1018.7 |
| 20260508215827 | 56 | 227 | 0.0 | 0.0 | 0.00 | 0.00 | 0.00 | 78 | 1018.7 |
| 20260508214826 | 56 | 222 | 0.0 | 0.0 | 0.00 | 0.00 | 0.00 | 78 | 1018.7 |
| 20260508213825 | 56 | 222 | 0.0 | 0.0 | 0.00 | 0.00 | 0.00 | 78 | 1018.6 |
| 20260508213326 | 56 | 222 | 0.0 | 0.0 | 0.00 | 0.00 | 0.00 | 77 | 1018.6 |
| 20260508212825 | 56 | 222 | 0.0 | 0.0 | 0.00 | 0.00 | 0.00 | 77 | 1018.5 |
| 20260508211826 | 57 | 213 | 0.0 | 0.0 | 0.00 | 0.00 | 0.00 | 76 | 1018.5 |
| 20260508211324 | 57 | 212 | 0.0 | 0.0 | 0.00 | 0.00 | 0.00 | 76 | 1018.4 |
| 20260508210825 | 57 | 210 | 0.0 | 0.0 | 0.00 | 0.00 | 0.00 | 75 | 1018.4 |
| 20260508210325 | 57 | 210 | 0.0 | 0.0 | 0.00 | 0.00 | 0.00 | 75 | 1018.4 |
| 20260508205826 | 57 | 210 | 0.0 | 0.0 | 0.00 | 0.00 | 0.00 | 74 | 1018.3 |
| 20260508205324 | 58 | 210 | 0.0 | 0.0 | 0.00 | 0.00 | 0.00 | 74 | 1018.3 |
| 20260508204825 | 58 | 205 | 0.0 | 0.0 | 0.00 | 0.00 | 0.00 | 73 | 1018.3 |
| 20260508204326 | 58 | 205 | 0.0 | 0.0 | 0.00 | 0.00 | 0.00 | 73 | 1018.2 |
| 20260508203825 | 58 | 205 | 0.0 | 0.0 | 0.00 | 0.00 | 0.00 | 72 | 1018.2 |
| 20260508203325 | 59 | 205 | 0.0 | 0.0 | 0.00 | 0.00 | 0.00 | 71 | 1018.2 |
| 20260508202826 | 59 | 205 | 0.0 | 0.0 | 0.00 | 0.00 | 0.00 | 71 | 1018.0 |
| 20260508202326 | 59 | 205 | 0.0 | 0.0 | 0.00 | 0.00 | 0.00 | 69 | 1018.0 |
| 20260508201826 | 59 | 205 | 0.0 | 0.0 | 0.00 | 0.00 | 0.00 | 69 | 1018.0 |
| 20260508201324 | 60 | 205 | 0.0 | 0.0 | 0.00 | 0.00 | 0.00 | 68 | 1017.9 |
| 20260508200825 | 60 | 205 | 0.0 | 0.0 | 0.00 | 0.00 | 0.00 | 67 | 1017.9 |
| 20260508195757 | 60 | 205 | 0.0 | 0.0 | 0.00 | 0.00 | 0.00 | 67 | 1017.8 |
| 20260508195258 | 61 | 215 | 0.0 | 0.0 | 0.00 | 0.00 | 0.00 | 66 | 1017.8 |
| 20260508194758 | 61 | 224 | 0.0 | 0.0 | 0.00 | 0.00 | 0.00 | 64 | 1017.8 |
| 20260508194258 | 61 | 226 | 0.0 | 0.0 | 0.00 | 0.00 | 0.00 | 64 | 1017.4 |
| 20260508193758 | 62 | 226 | 0.0 | 0.0 | 0.00 | 0.00 | 0.00 | 63 | 1017.4 |
| 20260508193257 | 62 | 215 | 0.0 | 0.0 | 0.00 | 0.00 | 0.00 | 62 | 1017.4 |
| 20260508192757 | 62 | 226 | 0.0 | 0.0 | 0.00 | 0.00 | 0.00 | 61 | 1017.3 |
| 20260508192257 | 62 | 214 | 1.0 | 0.0 | 0.00 | 0.00 | 0.00 | 61 | 1017.3 |
| 20260508191757 | 62 | 213 | 1.0 | 0.0 | 0.00 | 0.00 | 0.00 | 61 | 1017.3 |
| 20260508191259 | 62 | 213 | 2.0 | 0.0 | 0.00 | 0.00 | 0.00 | 62 | 1017.0 |
| 20260508190758 | 62 | 224 | 2.0 | 7.0 | 0.00 | 0.00 | 0.00 | 62 | 1017.0 |
| 20260508190257 | 62 | 217 | 2.0 | 7.0 | 0.00 | 0.00 | 0.00 | 61 | 1017.0 |
| 20260508185757 | 63 | 218 | 2.0 | 6.0 | 0.00 | 0.00 | 0.00 | 61 | 1016.8 |
| 20260508185258 | 63 | 215 | 2.0 | 5.0 | 0.00 | 0.00 | 0.00 | 61 | 1016.8 |
| 20260508184758 | 63 | 218 | 2.0 | 6.0 | 0.00 | 0.00 | 0.00 | 61 | 1016.8 |
| 20260508184257 | 64 | 201 | 2.0 | 5.0 | 0.00 | 0.00 | 0.00 | 60 | 1016.6 |
| 20260508183757 | 64 | 222 | 2.0 | 6.0 | 0.00 | 0.00 | 0.00 | 61 | 1016.6 |
| 20260508183257 | 64 | 214 | 3.0 | 5.0 | 0.00 | 0.00 | 0.00 | 61 | 1016.6 |
| 20260508182757 | 64 | 216 | 3.0 | 6.0 | 0.00 | 0.00 | 0.00 | 61 | 1016.5 |
| 20260508182257 | 64 | 214 | 2.0 | 7.0 | 0.00 | 0.00 | 0.00 | 61 | 1016.5 |
| 20260508181257 | 64 | 217 | 2.0 | 6.0 | 0.00 | 0.00 | 0.00 | 61 | 1016.3 |
| 20260508180758 | 64 | 193 | 2.0 | 5.0 | 0.00 | 0.00 | 0.00 | 61 | 1016.3 |
| 20260508180258 | 64 | 215 | 5.0 | 6.0 | 0.00 | 0.00 | 0.00 | 61 | 1016.3 |
| 20260508175757 | 64 | 201 | 5.0 | 7.0 | 0.00 | 0.00 | 0.00 | 61 | 1016.2 |
| 20260508175257 | 65 | 202 | 5.0 | 7.0 | 0.00 | 0.00 | 0.00 | 61 | 1016.2 |
| 20260508174757 | 65 | 204 | 5.0 | 7.0 | 0.00 | 0.00 | 0.00 | 60 | 1016.2 |
| 20260508172757 | 66 | 205 | 2.0 | 9.0 | 0.00 | 0.00 | 0.00 | 58 | 1015.9 |
| 20260508172259 | 66 | 200 | 2.0 | 6.0 | 0.00 | 0.00 | 0.00 | 57 | 1015.9 |
| 20260508171257 | 67 | 181 | 3.0 | 10.0 | 0.00 | 0.00 | 0.00 | 56 | 1016.0 |
| 20260508170757 | 67 | 176 | 3.0 | 8.0 | 0.00 | 0.00 | 0.00 | 56 | 1016.0 |
| 20260508170257 | 67 | 173 | 2.0 | 9.0 | 0.00 | 0.00 | 0.00 | 55 | 1016.0 |
| 20260508165257 | 68 | 152 | 0.0 | 9.0 | 0.00 | 0.00 | 0.00 | 56 | 1016.0 |
| 20260508164758 | 68 | 154 | 0.0 | 9.0 | 0.00 | 0.00 | 0.00 | 55 | 1016.0 |
| 20260508164257 | 68 | 129 | 0.0 | 2.0 | 0.00 | 0.00 | 0.00 | 54 | 1015.9 |
| 20260508163801 | 68 | 111 | 0.0 | 2.0 | 0.00 | 0.00 | 0.00 | 54 | 1015.9 |
| 20260508163257 | 68 | 124 | 1.0 | 0.0 | 0.00 | 0.00 | 0.00 | 54 | 1015.9 |
| 20260508162757 | 68 | 182 | 1.0 | 0.0 | 0.00 | 0.00 | 0.00 | 55 | 1015.8 |
| 20260508162258 | 68 | 178 | 2.0 | 3.0 | 0.00 | 0.00 | 0.00 | 55 | 1015.8 |
| 20260508161758 | 68 | 125 | 2.0 | 7.0 | 0.00 | 0.00 | 0.00 | 54 | 1015.8 |
| 20260508161258 | 68 | 162 | 2.0 | 6.0 | 0.00 | 0.00 | 0.00 | 54 | 1015.7 |
| 20260508155758 | 69 | 146 | 3.0 | 6.0 | 0.00 | 0.00 | 0.00 | 53 | 1015.6 |
| 20260508154758 | 69 | 128 | 3.0 | 8.0 | 0.00 | 0.00 | 0.00 | 51 | 1015.6 |
| 20260508153758 | 69 | 142 | 0.0 | 6.0 | 0.00 | 0.00 | 0.00 | 51 | 1015.5 |
| 20260508153258 | 69 | 113 | 2.0 | 0.0 | 0.00 | 0.00 | 0.00 | 51 | 1015.5 |
| 20260508152757 | 69 | 144 | 2.0 | 3.0 | 0.00 | 0.00 | 0.00 | 51 | 1015.5 |
| 20260508152258 | 69 | 126 | 0.0 | 5.0 | 0.00 | 0.00 | 0.00 | 51 | 1015.5 |
| 20260508151757 | 69 | 97 | 0.0 | 6.0 | 0.00 | 0.00 | 0.00 | 50 | 1015.5 |
| 20260508151258 | 69 | 119 | 2.0 | 1.0 | 0.00 | 0.00 | 0.00 | 51 | 1015.6 |
| 20260508150257 | 69 | 142 | 2.0 | 6.0 | 0.00 | 0.00 | 0.00 | 50 | 1015.6 |
| 20260508145259 | 69 | 163 | 3.0 | 5.0 | 0.00 | 0.00 | 0.00 | 51 | 1015.6 |
| 20260508144757 | 69 | 147 | 3.0 | 7.0 | 0.00 | 0.00 | 0.00 | 50 | 1015.6 |
| 20260508144257 | 70 | 120 | 2.0 | 8.0 | 0.00 | 0.00 | 0.00 | 50 | 1015.7 |
| 20260508143757 | 70 | 139 | 2.0 | 6.0 | 0.00 | 0.00 | 0.00 | 50 | 1015.7 |
| 20260508142258 | 70 | 126 | 2.0 | 6.0 | 0.00 | 0.00 | 0.00 | 49 | 1015.8 |
| 20260508141301 | 70 | 153 | 3.0 | 6.0 | 0.00 | 0.00 | 0.00 | 50 | 1015.8 |
| 20260508140757 | 71 | 114 | 3.0 | 10.0 | 0.00 | 0.00 | 0.00 | 48 | 1015.8 |
| 20260508140258 | 71 | 126 | 5.0 | 9.0 | 0.00 | 0.00 | 0.00 | 49 | 1015.8 |
| 20260508135757 | 71 | 109 | 5.0 | 7.0 | 0.00 | 0.00 | 0.00 | 49 | 1015.8 |
| 20260508135258 | 70 | 132 | 5.0 | 10.0 | 0.00 | 0.00 | 0.00 | 49 | 1015.8 |
| 20260508134759 | 70 | 108 | 5.0 | 10.0 | 0.00 | 0.00 | 0.00 | 47 | 1015.8 |
| 20260508134301 | 71 | 118 | 5.0 | 10.0 | 0.00 | 0.00 | 0.00 | 48 | 1016.1 |
| 20260508133758 | 71 | 115 | 5.0 | 10.0 | 0.00 | 0.00 | 0.00 | 48 | 1016.1 |
| 20260508133257 | 71 | 134 | 2.0 | 13.0 | 0.00 | 0.00 | 0.00 | 49 | 1016.1 |
| 20260508132758 | 71 | 126 | 2.0 | 10.0 | 0.00 | 0.00 | 0.00 | 49 | 1016.2 |
| 20260508132257 | 71 | 128 | 5.0 | 10.0 | 0.00 | 0.00 | 0.00 | 49 | 1016.2 |
| 20260508131757 | 70 | 125 | 5.0 | 6.0 | 0.00 | 0.00 | 0.00 | 48 | 1016.2 |
| 20260508131257 | 70 | 137 | 5.0 | 9.0 | 0.00 | 0.00 | 0.00 | 50 | 1016.1 |
| 20260508130757 | 70 | 112 | 5.0 | 7.0 | 0.00 | 0.00 | 0.00 | 49 | 1016.1 |
| 20260508130258 | 70 | 134 | 5.0 | 9.0 | 0.00 | 0.00 | 0.00 | 49 | 1016.1 |
| 20260508125758 | 70 | 123 | 5.0 | 12.0 | 0.00 | 0.00 | 0.00 | 49 | 1016.2 |
| 20260508125258 | 71 | 146 | 5.0 | 12.0 | 0.00 | 0.00 | 0.00 | 49 | 1016.2 |
| 20260508124757 | 71 | 145 | 5.0 | 10.0 | 0.00 | 0.00 | 0.00 | 49 | 1016.2 |
| 20260508124258 | 71 | 106 | 3.0 | 10.0 | 0.00 | 0.00 | 0.00 | 50 | 1016.1 |
| 20260508123258 | 71 | 142 | 5.0 | 10.0 | 0.00 | 0.00 | 0.00 | 49 | 1016.1 |
| 20260508122757 | 70 | 111 | 5.0 | 7.0 | 0.00 | 0.00 | 0.00 | 50 | 1016.3 |
| 20260508122258 | 70 | 106 | 5.0 | 9.0 | 0.00 | 0.00 | 0.00 | 51 | 1016.3 |
| 20260508121758 | 70 | 124 | 5.0 | 12.0 | 0.00 | 0.00 | 0.00 | 50 | 1016.3 |
| 20260508121257 | 70 | 122 | 5.0 | 9.0 | 0.00 | 0.00 | 0.00 | 51 | 1016.3 |
| 20260508120257 | 70 | 119 | 6.0 | 13.0 | 0.00 | 0.00 | 0.00 | 51 | 1016.3 |
| 20260508115758 | 70 | 86 | 6.0 | 10.0 | 0.00 | 0.00 | 0.00 | 50 | 1016.3 |
| 20260508114758 | 70 | 127 | 5.0 | 15.0 | 0.00 | 0.00 | 0.00 | 51 | 1016.3 |
| 20260508114258 | 70 | 127 | 5.0 | 12.0 | 0.00 | 0.00 | 0.00 | 52 | 1016.4 |
| 20260508113758 | 70 | 107 | 5.0 | 10.0 | 0.00 | 0.00 | 0.00 | 51 | 1016.4 |
| 20260508113257 | 69 | 125 | 5.0 | 8.0 | 0.00 | 0.03 | 0.00 | 53 | 1016.4 |
| 20260508112257 | 69 | 126 | 5.0 | 12.0 | 0.00 | 0.03 | 0.00 | 52 | 1016.5 |
| 20260508111758 | 69 | 119 | 5.0 | 13.0 | 0.00 | 0.06 | 0.00 | 53 | 1016.5 |
| 20260508111257 | 69 | 101 | 3.0 | 12.0 | 0.00 | 0.07 | 0.00 | 53 | 1016.7 |
| 20260508110757 | 69 | 110 | 3.0 | 10.0 | 0.00 | 0.08 | 0.00 | 54 | 1016.7 |
| 20260508110257 | 69 | 109 | 3.0 | 12.0 | 0.00 | 0.10 | 0.00 | 55 | 1016.7 |
| 20260508105757 | 69 | 107 | 3.0 | 10.0 | 0.00 | 0.14 | 0.00 | 53 | 1016.8 |
| 20260508105257 | 69 | 133 | 5.0 | 12.0 | 0.00 | 0.14 | 0.00 | 55 | 1016.8 |
| 20260508104758 | 68 | 105 | 5.0 | 9.0 | 0.00 | 0.14 | 0.00 | 55 | 1016.8 |
| 20260508104259 | 68 | 123 | 6.0 | 9.0 | 0.00 | 0.14 | 0.00 | 55 | 1016.9 |
| 20260508103759 | 68 | 122 | 6.0 | 13.0 | 0.00 | 0.14 | 0.00 | 56 | 1016.9 |
| 20260508103258 | 68 | 92 | 3.0 | 12.0 | 0.00 | 0.14 | 0.00 | 54 | 1016.9 |
| 20260508102757 | 68 | 114 | 3.0 | 13.0 | 0.00 | 0.14 | 0.00 | 55 | 1017.0 |
| 20260508102258 | 68 | 123 | 5.0 | 12.0 | 0.00 | 0.14 | 0.00 | 55 | 1017.0 |
| 20260508101758 | 68 | 110 | 5.0 | 8.0 | 0.00 | 0.14 | 0.00 | 55 | 1017.0 |
| 20260508101257 | 67 | 80 | 3.0 | 10.0 | 0.00 | 0.14 | 0.00 | 56 | 1017.2 |
| 20260508100757 | 67 | 89 | 3.0 | 12.0 | 0.00 | 0.14 | 0.00 | 56 | 1017.2 |
| 20260508100258 | 67 | 83 | 1.0 | 12.0 | 0.00 | 0.14 | 0.00 | 58 | 1017.2 |
| 20260508095257 | 67 | 61 | 0.0 | 9.0 | 0.00 | 0.14 | 0.00 | 55 | 1017.2 |
| 20260508094759 | 67 | 126 | 0.0 | 0.0 | 0.00 | 0.14 | 0.00 | 56 | 1017.2 |
| 20260508094257 | 66 | 115 | 1.0 | 0.0 | 0.00 | 0.14 | 0.00 | 55 | 1017.4 |
| 20260508093258 | 66 | 94 | 0.0 | 6.0 | 0.00 | 0.14 | 0.00 | 57 | 1017.4 |
| 20260508092757 | 65 | 67 | 0.0 | 6.0 | 0.00 | 0.14 | 0.00 | 59 | 1017.5 |
| 20260508092258 | 65 | 70 | 0.0 | 0.0 | 0.00 | 0.14 | 0.00 | 58 | 1017.5 |
| 20260508091757 | 65 | 90 | 0.0 | 0.0 | 0.00 | 0.14 | 0.00 | 59 | 1017.5 |
| 20260508091259 | 65 | 23 | 0.0 | 0.0 | 0.00 | 0.14 | 0.00 | 61 | 1017.4 |
| 20260508090757 | 65 | 108 | 0.0 | 0.0 | 0.00 | 0.14 | 0.00 | 59 | 1017.4 |
| 20260508090258 | 65 | 84 | 0.0 | 6.0 | 0.00 | 0.14 | 0.00 | 61 | 1017.4 |
| 20260508085759 | 64 | 44 | 0.0 | 0.0 | 0.00 | 0.14 | 0.00 | 61 | 1017.4 |
| 20260508085258 | 64 | 33 | 1.0 | 2.0 | 0.00 | 0.14 | 0.00 | 61 | 1017.4 |
| 20260508084757 | 64 | 73 | 1.0 | 5.0 | 0.00 | 0.14 | 0.00 | 64 | 1017.4 |
| 20260508083259 | 62 | 33 | 0.0 | 0.0 | 0.00 | 0.14 | 0.00 | 64 | 1017.7 |
| 20260508082759 | 62 | 52 | 0.0 | 0.0 | 0.00 | 0.14 | 0.00 | 65 | 1017.7 |
| 20260508082257 | 62 | 77 | 1.0 | 0.0 | 0.00 | 0.14 | 0.00 | 66 | 1017.7 |
| 20260508081758 | 62 | 335 | 1.0 | 0.0 | 0.00 | 0.14 | 0.00 | 64 | 1017.7 |
| 20260508081258 | 61 | 5 | 0.0 | 5.0 | 0.00 | 0.14 | 0.00 | 67 | 1017.9 |
| 20260508080258 | 60 | 56 | 0.0 | 0.0 | 0.00 | 0.14 | 0.00 | 67 | 1017.9 |
| 20260508075758 | 60 | 0 | 0.0 | 0.0 | 0.00 | 0.14 | 0.00 | 70 | 1017.8 |
| 20260508075258 | 60 | 109 | 0.0 | 9.0 | 0.00 | 0.14 | 0.00 | 70 | 1017.8 |
| 20260508074758 | 60 | 1 | 0.0 | 0.0 | 0.00 | 0.14 | 0.00 | 70 | 1017.8 |
| 20260508074258 | 59 | 23 | 0.0 | 1.0 | 0.00 | 0.14 | 0.00 | 71 | 1017.9 |
| 20260508073758 | 59 | 136 | 0.0 | 0.0 | 0.00 | 0.14 | 0.00 | 70 | 1017.9 |
| 20260508073258 | 59 | 171 | 0.0 | 0.0 | 0.00 | 0.14 | 0.00 | 72 | 1017.9 |
| 20260508072757 | 59 | 51 | 0.0 | 0.0 | 0.00 | 0.14 | 0.00 | 72 | 1017.9 |
| 20260508071257 | 58 | 14 | 0.0 | 0.0 | 0.00 | 0.14 | 0.00 | 74 | 1017.8 |
| 20260508070757 | 58 | 49 | 0.0 | 0.0 | 0.00 | 0.14 | 0.00 | 72 | 1017.8 |
| 20260508070257 | 58 | 329 | 0.0 | 0.0 | 0.00 | 0.14 | 0.00 | 73 | 1017.8 |
| 20260508065800 | 58 | 25 | 0.0 | 0.0 | 0.00 | 0.14 | 0.00 | 74 | 1017.8 |
| 20260508065257 | 57 | 321 | 0.0 | 5.0 | 0.00 | 0.14 | 0.00 | 73 | 1017.8 |
| 20260508064758 | 57 | 355 | 0.0 | 0.0 | 0.00 | 0.14 | 0.00 | 76 | 1017.8 |
| 20260508064257 | 57 | 16 | 0.0 | 5.0 | 0.00 | 0.14 | 0.00 | 76 | 1017.8 |
| 20260508063758 | 56 | 16 | 0.0 | 3.0 | 0.00 | 0.14 | 0.00 | 76 | 1017.8 |
| 20260508063258 | 56 | 12 | 0.0 | 0.0 | 0.00 | 0.14 | 0.00 | 77 | 1017.8 |
| 20260508062757 | 57 | 18 | 0.0 | 0.0 | 0.00 | 0.14 | 0.00 | 77 | 1017.7 |
| 20260508062258 | 57 | 16 | 0.0 | 1.0 | 0.00 | 0.14 | 0.00 | 75 | 1017.7 |
| 20260508061758 | 57 | 53 | 0.0 | 0.0 | 0.00 | 0.14 | 0.00 | 76 | 1017.7 |
| 20260508061259 | 57 | 36 | 0.0 | 0.0 | 0.00 | 0.14 | 0.00 | 76 | 1017.7 |
| 20260508060759 | 56 | 4 | 0.0 | 0.0 | 0.00 | 0.14 | 0.00 | 76 | 1017.7 |
| 20260508055800 | 56 | 32 | 0.0 | 0.0 | 0.00 | 0.14 | 0.00 | 79 | 1017.5 |
| 20260508055259 | 56 | 32 | 0.0 | 0.0 | 0.00 | 0.14 | 0.00 | 79 | 1017.5 |
| 20260508054757 | 56 | 32 | 0.0 | 0.0 | 0.00 | 0.14 | 0.00 | 80 | 1017.5 |
| 20260508054258 | 55 | 32 | 0.0 | 0.0 | 0.00 | 0.14 | 0.00 | 79 | 1017.5 |
| 20260508051758 | 54 | 22 | 0.0 | 0.0 | 0.00 | 0.14 | 0.00 | 82 | 1017.6 |
| 20260508051258 | 54 | 3 | 0.0 | 0.0 | 0.00 | 0.14 | 0.00 | 84 | 1017.5 |
| 20260508050759 | 53 | 304 | 0.0 | 2.0 | 0.00 | 0.14 | 0.00 | 85 | 1017.5 |
| 20260508050257 | 53 | 304 | 0.0 | 0.0 | 0.00 | 0.14 | 0.00 | 86 | 1017.5 |
| 20260508045758 | 52 | 304 | 0.0 | 2.0 | 0.00 | 0.14 | 0.00 | 88 | 1017.4 |
| 20260508044758 | 51 | 297 | 0.0 | 0.0 | 0.00 | 0.14 | 0.00 | 90 | 1017.4 |
| 20260508044257 | 50 | 238 | 0.0 | 0.0 | 0.00 | 0.14 | 0.00 | 90 | 1017.2 |
| 20260508043757 | 50 | 237 | 0.0 | 0.0 | 0.00 | 0.14 | 0.00 | 89 | 1017.2 |